STARLINK-36382, 67807

Orbit data source: Space-Track

STARLINK-36382, 67807 is a payload satellite owned by SpaceX/Seattle (US) in SSO that was launched on Sun, 15 Feb 2026 UTC via an FALCON 9 launch vehicle from the Air Force Western Test Range (AFWTR). Payload-class satellites include a variety of spacecraft equipped with specific instruments for various scientific and technological missions. These include communications satellites like Starlink; space stations such as the ISS; scientific satellites like the Hubble; Earth observation satellites from companies like Planet Labs, Umbra, and HawkEye 360; GPS; miniature CubeSats for education and research; and military/defense satellites.

Loading next visibility...
Identifier
67807, 2026-032L
Orbit
SSO
Country
Flag of USUS
Related business
Manufacturer
SpaceX/Seattle
Mission
Operational Commercial Communications
Bus & Motor
STARLINK V2MO, Unknown motor
Mass
575 kg wet, ~530 kg dry
Launch date (UTC)
2026-02-15 (4 months ago)
Launch vehicle
FALCON 9
Launch site
Air Force Western Test Range (AFWTR)
Object type
Payload
Rocket body
Debris
Shape & HBR
Box + 2 Pan, 17.7 m
Radar Cross Section
36.964 m², Large (>1 m²)

Expand to show TLE details & history
Last TLE update: 21 hours ago

TLE from 21 hours ago
0 STARLINK-36382
1 67807U 26032L   26170.96505994  .00017524  00000-0  54378-3 0  9993
2 67807  97.2860 358.6719 0001490  90.0160 270.1254 15.33450832 20637
Epoch: 2026-06-19T23:09Z
TLE epoch observation values (Epoch: 2026-06-19T23:09:41.178Z)
Latitude
0.00001°
Longitude
103.06385°
Altitude
468.636 km
Speed
7.632 km/s
True Right ascension
23h 54m 41s
True Declination
0° 00' 00"
Sunlit
Object was in daylight at epoch
Visualization orbit readout
Latitude
Unknown
Longitude
Unknown
Altitude
Unknown
Speed
Unknown
Apparent Right ascension
Unknown
Apparent Declination
Unknown
Sunlit
N/A
Visualization observer readout
Local Sidereal Time
07:13:35
Azimuth
Unknown
Elevation
Unknown
Doppler factor
Unknown
Orbital elements
Apogee altitude
463.488 km
Perigee altitude
461.449 km
Semi-major axis
6,840.606 km
Eccentricity
0.00015
Inclination
97.286°
RAAN
358.6719°
Arg. of periapsis
90.016°
True anomaly
270.10833°
Mean anomaly
270.1254°
Eccentric anomaly
270.11686°
Mean motion
3.8362 °/min
Orbital period
93.84 mins
BSTAR
0.00054378
Loading maneuver chart data...
Computing Atmospheric mass density...
Loading historical data...
Loading historical data...
Loading historical data...
Loading historical data...
Loading historical data...
Loading historical data...
Loading historical data...

Documentation

Showing up to 5 results
|